• Processing (Info)

  • MPEC 2010-J53 : 2010 JR34

    The following Minor Planet Electronic Circular may be linked-to from your own Web pages, but must not otherwise be redistributed electronically.

    A form allowing access to any MPEC is at the bottom of this page.


    Read MPEC 2010-J52 Read MPEC 2010-J54


    M.P.E.C. 2010-J53                                Issued 2010 May  9, 18:01 UT
    
         The Minor Planet Electronic Circulars contain information on unusual
             minor planets and routine data on comets.  They are published
       on behalf of Commission 20 of the International Astronomical Union by the
              Minor Planet Center, Smithsonian Astrophysical Observatory,
                              Cambridge, MA 02138, U.S.A.
    
                 Prepared using the Tamkin Foundation Computer Network
    
                                  MPC@CFA.HARVARD.EDU
           URL https://www.minorplanetcenter.org/iau/mpc.html  ISSN 1523-6714
    
                                       2010 JR34
    
    Observations:
         K10J34R* C2010 05 07.22213 13 34 22.72 -15 22 09.6          19.7 V EJ053G96
         K10J34R  C2010 05 07.22810 13 34 15.85 -15 21 57.5          20.2 V EJ053G96
         K10J34R  C2010 05 07.23405 13 34 08.94 -15 21 45.5          20.2 V EJ053G96
         K10J34R  C2010 05 07.23995 13 34 02.02 -15 21 33.1          20.4 V EJ053G96
         K10J34R  C2010 05 07.25704 13 33 42.08 -15 20 56.7          20.4 V EJ053G96
         K10J34R  C2010 05 07.25773 13 33 41.32 -15 20 55.7          20.8 V EJ053G96
         K10J34R  C2010 05 07.25988 13 33 38.77 -15 20 51.2          20.7 V EJ053G96
         K10J34R  C2010 05 07.26061 13 33 37.98 -15 20 49.2          20.2 V EJ053G96
         K10J34R  C2010 05 07.26277 13 33 35.49 -15 20 44.8          21.3 V EJ053G96
         K10J34R  C2010 05 07.26350 13 33 34.52 -15 20 43.1          20.4 V EJ053G96
         K10J34R  C2010 05 07.26564 13 33 32.00 -15 20 38.2          19.8 V EJ053G96
         K10J34R  C2010 05 07.26634 13 33 31.32 -15 20 37.1          21.4 V EJ053G96
         K10J34R  C2010 05 07.30203 13 32 49.40 -15 19 15.7          21.6 V EJ053G96
         K10J34R  C2010 05 07.30537 13 32 45.55 -15 19 08.0                 EJ053G96
         K10J34R  C2010 05 07.30871 13 32 41.76 -15 18 59.9                 EJ053G96
         K10J34R  C2010 05 08.14943 13 17 41.01 -14 44 55.3          20.2 R EJ053H01
         K10J34R  C2010 05 08.15719 13 17 30.90 -14 44 36.5          19.6 R EJ053H01
         K10J34R  C2010 05 08.16485 13 17 20.85 -14 44 16.8          19.8 R EJ053H01
         K10J34R  C2010 05 08.17342 13 17 09.54 -14 43 55.0          19.8 R EJ053H01
         K10J34R KC2010 05 08.22552 13 15 55.71 -14 41 56.0          20.5 R EJ053H36
         K10J34R  C2010 05 08.22769 13 15 58.96 -14 41 15.6          20.5 R EJ053651
         K10J34R KC2010 05 08.22927 13 15 50.75 -14 41 43.5          20.5 R EJ053H36
         K10J34R  C2010 05 08.23082 13 15 54.77 -14 41 07.7          20.5 R EJ053651
         K10J34R KC2010 05 08.23691 13 15 40.57 -14 41 21.0          20.0 R EJ053H36
         K10J34R  C2010 05 08.41256 13 12 22.27 -14 23 31.0          19.9 R EJ053474
         K10J34R  C2010 05 08.41476 13 12 19.35 -14 23 24.4          19.5 R EJ053474
         K10J34R  C2010 05 08.41684 13 12 16.56 -14 23 19.0          19.9 R EJ053474
         K10J34R  C2010 05 08.41892 13 12 13.72 -14 23 12.6          20.2 R EJ053474
         K10J34R  C2010 05 09.40890 12 50 43.43 -13 25 58.9          19.7 R EJ053474
         K10J34R  C2010 05 09.41049 12 50 40.98 -13 25 52.5          19.9 R EJ053474
         K10J34R  C2010 05 09.41207 12 50 38.52 -13 25 46.6          19.6 R EJ053474
    
    Observer details:
    474 Mount John Observatory, Lake Tekapo.  Observers A. C. Gilmore,
        P. M. Kilmartin.  Measurer P. M. Kilmartin.  1.0-m f/7.7 reflector + CCD.
    651 Grasslands Observatory, Tucson.  Observer J. E. McGaha.  0.62-m f/5.1
        reflector + CCD.
    G96 Mt. Lemmon Survey.  Observer R. E. Hill.  Measurers J. D. Ahern,
        E. C. Beshore, A. Boattini, G. J. Garradd, A. R. Gibbs, A. D. Grauer,
        R. E. Hill, R. A. Kowalski, S. M. Larson, R. H. McNaught.  1.5-m reflector
        + CCD.
    H01 Magdalena Ridge Observatory, Socorro.  Observers W. H. Ryan, E. V. Ryan.
        Measurer W. H. Ryan.  2.4-m f/8.9 reflector + CCD.
    H36 Sandlot Observatory, Scranton.  Observer G. Hug.  0.56-m reflector + CCD.
    
    Orbital elements:
    2010 JR34                                                Earth MOID = 0.0038 AU
    Epoch 2010 July 23.0 TT = JDT 2455400.5                 MPC
    M 327.45078              (2000.0)            P               Q
    n   1.04860907     Peri.  316.29730     +0.99285312     +0.11910304
    a   0.9595339      Node    36.86435     -0.10573985     +0.90728930
    e   0.1448469      Incl.    0.72201     -0.05533325     +0.40328722
    P   0.94           H   27.7           G   0.15           U   7
    Residuals in seconds of arc
    100507 G96  1.1-  0.2-    100507 G96  1.3+  0.3-    100508 651  0.4+  0.1-
    100507 G96  0.1-  0.1-    100507 G96  1.1-  0.3+    100508 H36  1.6-  0.4+
    100507 G96  0.1+  0.2-    100507 G96  0.4-  0.1+    100508 474  0.0   0.0
    100507 G96  0.6-  0.0     100507 G96  1.2+  0.4+    100508 474  0.6+  0.2+
    100507 G96  0.3-  0.3+    100508 H01  0.0   0.4+    100508 474  0.8+  0.5-
    100507 G96  0.3+  0.2-    100508 H01  0.4+  0.2-    100508 474  0.3+  0.1-
    100507 G96  0.2-  0.3-    100508 H01  0.3+  0.2+    100509 474  0.0   0.1-
    100507 G96  0.7+  0.1+    100508 H01  0.3-  0.0     100509 474  0.1+  0.1+
    100507 G96  1.3+  0.2-    100508 H36  0.6-  1.1-    100509 474  0.2-  0.2-
    100507 G96  0.4-  0.1-    100508 651  0.3+  0.8+
    100507 G96  0.7-  0.1+    100508 H36  0.6-  0.4+
    
    Ephemeris:
    2010 JR34                a,e,i = 0.96, 0.14, 1                   q = 0.8205
    Date    TT    R. A. (2000) Decl.     Delta      r     Elong.  Phase     V
    2010 05 04    14 17.65   -16 30.7    0.0282   1.036   173.8     6.0    20.5
    2010 05 07    13 38.02   -15 24.9    0.0224   1.030   161.5    18.1    20.5
    2010 05 10    12 36.37   -12 48.0    0.0178   1.024   143.5    35.9    20.5
    2010 05 13    11 07.17   -07 21.7    0.0151   1.018   118.1    61.2    20.8
    2010 05 16    09 26.51   +00 12.4    0.0154   1.011    89.1    90.1    21.8
    2010 05 19    08 04.65   +06 24.0    0.0183   1.004    64.9   114.1    23.4
    
    Carl W. Hergenrother         (C) Copyright 2010 MPC           M.P.E.C. 2010-J53
    

    Read MPEC 2010-J52 Read MPEC 2010-J54


    MPEC number:

    Enter an MPEC number in one of the following forms:

    • 1997-B01 (the full form)
    • J97B01 (the packed version of the full form)
    • B01 (the abbreviated form)